www.pogodaiklimat.ru

Погода и климат >> Архив погоды >> Пакистан >> Лахор


ПОГОДА в Лахоре

  • Прогноз погоды в Лахоре
  • Монитор погоды в Лахоре

АРХИВ ПОГОДЫ в Лахоре

Время (UTC), дата Ветер
(напр.,м/с)
 
Видим.   Явления Облачность Т
(С)
Тd
(С)
f
(%)
Тe
(С)
Тes
(С)
Комфортность P
(гПа)
Po
(гПа)
Тmin
(С)
Tmax
(С)
R
(мм)
R24
(мм)
S
(см)
12 14.04 З 2 4000 м мгла 4/3 1200 м
[Sc Ac trans]
+33.0 +15.5 35 +35 +37 душно 1008.4 984.7 +34.4
15 14.04 штиль 0 4000 м мгла ясно +30.5 +17.2 45 +34 +34 очень
душно
1008.9 1000.0
18 14.04 штиль 0 4000 м дым ясно +27.0 +17.6 56 +31 +31 душно 1009.8 985.7
21 14.04 штиль 0 4000 м дым 4/0
[Ac trans]
+26.0 +17.3 59 +30 +30 душно 1009.5 985.0
00 15.04 штиль 0 4000 м дым ясно +25.0 +16.1 58 +28 +28 жарко 1008.5 984.2
03 15.04 С 2 4000 м мгла 3/0
[Ci fib]
+27.0 +15.0 48 +30 +35 душно 1009.2 985.1 +23.5
06 15.04 штиль 0 4000 м мгла 6/1 1200 м
[Sc Ac trans]
+33.0 +17.6 40 +37 +52 опасность
солнечного
удара
1009.0 985.3
09 15.04 З 1 4000 м мгла 4/1 1200 м
[Sc Ac trans]
+35.0 +15.2 31 +37 +47 очень
душно
1007.0 1000.0
12 15.04 З 3 4000 м мгла 6/0
[Ac trans Ci fib]
+36.0 +15.6 30 +38 +39 очень
душно
1003.5 980.2 +36.7
15 15.04 З 9 1000 м зарница {гроза} 10/5 900 м
[Cb calv As op]
+28.5 +16.6 49 +32 +32 душно 1006.9 982.7
18 15.04 ЮЗ 7 2000 м гроза, ливневой дождь 10/5 900 м
[Cb calv As op]
+22.0 +15.4 66 +26 +26 душно 1009.9 985.4 1
21 15.04 С 2 4000 м в посл. час дождь {гроза} 10/4 1200 м
[Sc As op]
+21.0 +16.9 77 +25 +25 комфорт 1009.2 984.3 4
00 16.04 С 3 4000 м дым 9/4 1140 м
[Sc As op]
+21.0 +17.8 82 +26 +26 душно 1008.7 984.1
03 16.04 СВ 1 4000 м дым {морось} 9/9 300 м
[Sc As op]
+22.0 +17.2 74 +26 +27 душно 1009.2 984.7 +19.7 0.0
06 16.04 В 1 4000 м дым 6/4 1260 м
[Sc As op]
+25.5 +17.6 62 +30 +39 душно 1010.1 985.9
09 16.04 В 1 4000 м дым 6/4 1260 м
[Sc As op]
+28.0 +16.9 51 +32 +39 душно 1009.7 1000.0
12 16.04 ЮЗ 2 4000 м гроза, ливневой дождь {морось} 8/3 900 м
[Cb cap As trans]
+27.0 +18.5 60 +32 +33 очень
душно
1007.7 983.6 +29.0 0.2
15 16.04 штиль 0 4000 м зарница {гроза, дождь} 6/1 900 м
[Cb cap As trans]
+18.0 +15.5 85 +18 +18 1007.4 1000.0 13
18 16.04 ЮЗ 3 4000 м гроза, ливневой дождь 10/3 900 м
[Cb cap As trans]
+20.0 +15.8 77 +23 +23 комфорт 1010.0 985.3 0.2
21 16.04 С 2 2000 м гроза, ливневой дождь 10/10 300 м
[Cb cap As trans]
+17.0 +17.0 100 +17 +17 1010.4 985.1 28
00 17.04 штиль 0 2000 м дым {гроза, дождь} 9/5 1200 м
[Sc As trans]
+17.5 +16.5 94 +17 +17 1008.2 983.2 1
03 17.04 С 1 4000 м слаб. морось 10/5 1200 м
[Sc As trans]
+17.5 +16.5 94 +19 +19 1011.4 986.4 +16.5 1
06 17.04 В 1 4000 м дым {дождь} 6/4 1260 м
[Sc As op]
+19.5 +17.0 85 +23 +32 комфорт 1011.9 987.1 3
09 17.04 Ю 1 4000 м дым 6/4 1260 м
[Sc As op]
+21.5 +17.5 78 +26 +34 душно 1012.4 987.5
12 17.04 С 1 4000 м слаб. морось {гроза, дождь} 8/5 1200 м
[Sc As trans]
+20.5 +18.1 86 +25 +26 комфорт 1011.3 986.5 +22.5 1
15 17.04 С 1 4000 м дым 5/3 1200 м
[Sc Ac trans]
+19.5 +16.4 82 +23 +23 комфорт 1013.0 1000.0
18 17.04 штиль 0 4000 м дым 4/0
[Ac trans]
+18.5 +15.5 83 +19 +19 1013.1 988.1
21 17.04 штиль 0 4000 м дым 5/3 1200 м
[Sc Ac trans]
+18.0 +15.5 85 +18 +18 1013.1 1000.0
00 18.04 З 1 4000 м дым 6/4 1200 м
[Sc Ac trans]
+17.0 +14.4 85 +18 +18 1013.1 987.9
03 18.04 С 1 4000 м дым 6/4 1200 м
[Sc Ac trans]
+19.5 +17.0 85 +23 +26 комфорт 1015.1 990.2 +16.1
06 18.04 С 1 4000 м дым 5/3 1200 м
[Sc Ac trans]
+23.0 +14.6 59 +27 +39 душно 1015.3 990.7
09 18.04 С 1 4000 м мгла 5/3 1200 м
[Cu med, cong Ac trans]
+26.0 +14.4 49 +28 +39 жарко 1013.2 988.6
12 18.04 З 1 4000 м мгла 3/3 1260 м
[Cu med, cong]
+26.5 +14.0 46 +29 +31 жарко 1011.5 987.4 +27.5
15 18.04 штиль 0 4000 м дым ясно +24.0 +14.9 57 +27 +27 жарко 1011.8 987.1
18 18.04 штиль 0 4000 м дым ясно +22.0 +15.4 66 +26 +26 душно 1012.2 987.7
21 18.04 штиль 0 4000 м дым ясно +20.5 +15.5 73 +23 +23 комфорт 1011.2 1000.0
00 19.04 штиль 0 4000 м дым ясно +19.0 +15.6 81 +20 +20 1011.5 986.7
03 19.04 штиль 0 4000 м дым ясно +22.0 +15.4 66 +26 +34 душно 1010.7 986.2 +18.3
06 19.04 Ю 1 4000 м дым ясно +26.5 +16.0 52 +30 +51 опасность
солнечного
удара
1011.3 987.2
09 19.04 штиль 0 4000 м мгла ясно +30.5 +15.2 40 +33 +54 опасность
солнечного
удара
1009.5 1000.0
12 19.04 штиль 0 4000 м мгла ясно +30.5 +14.1 37 +32 +36 жарко 1007.5 983.6 +31.4
15 19.04 штиль 0 4000 м мгла ясно +28.0 +15.9 48 +31 +31 душно 1007.8 1000.0
18 19.04 штиль 0 4000 м дым ясно +26.0 +17.3 59 +30 +30 душно 1009.0 984.8
21 19.04 штиль 0 4000 м мгла ясно +23.5 +16.2 64 +27 +27 душно 1008.9 1000.0
00 20.04 штиль 0 4000 м дым ясно +22.0 +16.3 70 +26 +26 душно 1007.3 982.9
03 20.04 штиль 0 4000 м дым 5/0
[Ci fib]
+24.0 +15.8 60 +27 +35 жарко 1007.4 983.0 +20.9
06 20.04 штиль 0 4000 м мгла 6/0
[Ac trans Ci fib]
+30.0 +15.6 42 +33 +52 опасность
солнечного
удара
1007.3 983.4
09 20.04 ЮЗ 1 4000 м мгла 4/4 1140 м
[Cu Sc]
+32.5 +15.9 37 +35 +47 душно 1006.4 1000.0
12 20.04 В 1 4000 м мгла 3/3 1200 м
[Sc]
+33.0 +16.6 38 +36 +38 очень
душно
1004.6 981.1 +33.5
15 20.04 штиль 0 4000 м мгла ясно +29.0 +17.2 49 +33 +33 очень
душно
1004.9 1000.0
18 20.04 штиль 0 4000 м дым ясно +26.5 +17.9 59 +31 +31 душно 1006.1 982.1
21 20.04 штиль 0 4000 м дым ясно +25.0 +17.0 61 +29 +29 душно 1005.7 1000.0
00 21.04 штиль 0 4000 м дым ясно +23.0 +17.4 71 +28 +28 душно 1005.2 980.9
03 21.04 штиль 0 4000 м дым ясно +25.0 +17.9 65 +29 +38 душно 1005.8 981.6 +22.7
06 21.04 Ю 1 4000 м мгла ясно +32.0 +16.2 39 +35 +57 опасность
солнечного
удара
1006.2 982.6
09 21.04 З 2 4000 м мгла 3/3 1200 м
[Sc]
+34.0 +16.9 36 +37 +48 очень
душно
1004.5 1000.0

 

Местоположение метеостанции Лахор (Пакистан): широта 31.55 долгота 74.33 высота над уровнем моря 215 м.

В архиве по умолчанию представлена погода в Лахоре за последнюю неделю. Архивные данные за месяц целиком и за предыдущие месяцы, начиная с января 2011 года, Вы можете получить, выбрав интересующий диапазон дат из раскрывающегося списка и нажав кнопку "Ввод!".


*Определитесь, кто Вы:
робот инопланетянин человек

Внимание! Время в таблицах - всемирное. Для получения местного времени необходимо прибавить поправку, которая равна 5 ч.

Смотрите также архив погоды в соседних городах и на ближайших метеорологических станциях:

Погода в Лахор аэропорту (Пакистан) (7 км)
Погода в Касуре (Пакистан) (52 км)
Погода в Амритсаре (Пенджаб, Индия) (52 км)
Погода в Гуджранвале (Пакистан) (70 км)
Погода в Наровале (Пакистан) (80 км)
Погода в Хафизабаде (Пакистан) (87 км)
Погода в Сиялкоте (Пакистан) (107 км)
Погода в Гуджрате (Пакистан) (111 км)
Погода в Сиалкот аэропорту (Пакистан) (113 км)
Погода в Фейсалабаде (Пакистан) (117 км)

Пояснения к столбцам:

Ветер - указаны скорость ветра в м/с - средняя за 10 мин, порывы в срок и между сроками (в фигурных скобках) и направление, откуда дует ветер: С - северный, СВ - северо-восточный, В - восточный, ЮВ - юго-восточный, Ю - южный, ЮЗ - юго-западный, З - западный, СЗ - северо-западный.
Видимость - горизонтальная дальность видимости в метрах или километрах. При видимости от 1 до 10 км при отсутствии осадков обычно наблюдается дымка, при ухудшении видимости до 1 км и менее - туман. В сухую погоду видимость может ухудшаться дымом, пылью или мглою.
Явления - указаны атмосферные явления, наблюдавшиеся в срок или в последний час перед сроком; фигурными скобками обозначены явления, наблюдавшиеся между сроками (за 1-3 часа до срока); квадратными скобками обозначены град или гололедные отложения с указанием их диаметра в мм.
Облачность - указаны через наклонную черту общая и нижняя облачность в баллах и высота нижней границы облаков в метрах; квадратными скобками обозначены формы облаков: Ci - перистые, Cs - перисто-слоистые, Cc - перисто-кучевые, Ac - высококучевые, As - высокослоистые, Sc - слоисто-кучевые, Ns - слоисто-дождевые, Cu - кучевые, Cb - кучево-дождевые. Подробнее классификацию облаков см. в Атласе облаков (PDF).
T - Температура воздуха - температура, измеренная на высоте 2 м над землей.
Td - Температура точки росы - температура, при понижении до которой содержащийся в воздухе водяной пар достигнет насыщения.
f - Относительная влажность воздуха - влажноcть воздуха, измеренная на высоте 2 м над землей.
Te - Эффективная температура - температура, которую ощущает одетый по сезону человек в тени. Характеристика душности погоды. При расчете учитывается влияние влажности воздуха и скорости ветра на теплоощущения человека.
Tes - Эффективная температура на солнце - температура, которую ощущает человек, с поправкой на солнечный нагрев. Характеристика знойности погоды. Зависит от высоты солнца над горизонтом, облачности и скорости ветра. Ночью, в пасмурную погоду, а также при ветре 12 м/с и более поправка равна нулю.
P - Атмосферное давление - приведенное к уровню моря атмосферное давление.
Po - Атмосферное давление - измеренное на уровне метеостанции атмосферное давление.
Tmin - Минимальная температура - минимум температуры воздуха на высоте 2 м над землей.
Tmax - Максимальная температура - максимум температуры воздуха на высоте 2 м над землей.
R - Количество осадков - Количество выпавших осадков за период времени, мм. При наведении курсора мыши на число - период времени, за который выпало указанное количество осадков.
R24 - Количество осадков - Количество выпавших осадков за 24 часа, мм.
S - Снежный покров - Высота снежного покрова, см. При наведении курсора мыши на число - состояние снежного покрова и степень покрытия местности в баллах.